Location: Carlat
(44.8891°N, 2.5654°E)
Time: 21:37:39
(UTC+00:00)

Daily predictions for brighter satellites

Satellite Brightness Start Highest point End
(mag) Time Altitude Azimuth Time Altitude Azimuth Time Altitude Azimuth
DMSP B5D2-2 4.4 16:35:00 10° NNE 16:40:04 49° E 16:45:06 10° S
[s.n.58440] 3.4 16:38:18 10° W 16:40:51 44° S 16:43:24 10° ESE
[s.n.58439] 3.5 16:39:07 10° W 16:41:40 44° S 16:44:13 10° ESE
Meteor 1-31 Rocket 3.5 16:39:06 10° SE 16:42:20 30° ENE 16:45:35 10° N
Cosmos 1076 Rocket 3.5 16:38:00 10° N 16:42:21 65° E 16:46:39 10° SSE
[s.n.58437] 3.5 16:39:52 10° W 16:42:25 44° S 16:44:58 10° ESE
[s.n.58438] 3.5 16:40:38 10° W 16:43:11 44° S 16:45:44 10° ESE
USA 306 1.0 16:44:39 10° NW 16:46:51 66° NNE 16:48:56 10° ESE
Cosmos 1544 2.9 16:43:55 10° NNW 16:47:10 77° W 16:50:24 10° S
SJ-7 4.3 16:43:18 10° SSE 16:47:14 67° ENE 16:51:15 10° N
ATLAS CENTAUR R/B 2.7 16:46:46 10° NW 16:50:47 55° NE 16:58:28 10° ESE
SL-16 R/B 2.9 16:45:34 10° NNW 16:51:09 60° WSW 16:56:41 10° S
Cosmos 1602 3.9 16:50:19 10° N 16:53:55 45° ENE 16:57:31 10° SSE
SL-8 R/B 3.7 16:49:54 10° WNW 16:54:42 83° NNE 16:59:30 10° ESE
USA 305 2.8 16:51:46 10° NW 16:55:31 51° NNE 16:59:15 10° ESE
CZ-4B R/B 4.1 16:53:52 10° SE 16:58:18 32° ENE 17:02:39 10° N
Cosmos 1782 4.2 16:57:38 10° SE 17:00:23 19° E 17:03:03 10° NE
Cosmos 1812 Rocket 4.2 16:56:48 10° SSE 17:00:39 32° E 17:04:33 10° NNE
Cosmos 1943 3.3 16:56:36 10° NNW 17:02:08 55° ENE 17:07:40 10° SE
Helios 1A 3.9 16:59:44 10° NE 17:03:21 28° E 17:06:56 10° SSE
ATLAS 2AS CENTAUR R/B 3.6 16:57:34 10° NNW 17:03:32 29° NNE 17:09:09 10° E
SMAP 3.0 17:00:14 10° SSE 17:04:52 71° ENE 17:09:31 10° N
Helios 1B rocket 3.1 17:01:32 10° S 17:05:24 56° WSW 17:09:18 10° NNW
Cosmos 1500 3.3 17:02:06 10° NNW 17:05:38 69° W 17:09:07 10° S
CZ-4B R/B 3.6 17:04:46 10° SSE 17:08:17 61° ENE 17:11:53 10° N
Cosmos 2297 Rocket 4.4 17:08:16 10° W 17:11:59 18° NW 17:15:43 10° N
Radarsat Rocket 4.4 17:07:29 10° SE 17:12:47 38° ENE 17:18:20 10° N
Cosmos 407 Rocket 3.7 17:08:40 10° N 17:13:37 44° ENE 17:18:29 10° SE
ISS -2.6 17:16:01 10° WNW 17:19:14 44° SW 17:22:27 10° SE
Cosmos 2251 Rocket 3.6 17:16:10 10° NNW 17:21:26 56° ENE 17:26:42 10° SE
COSMOS 2455 4.4 17:23:34 10° SE 17:26:42 15° ESE 17:27:02 15° E
Lacrosse 5 2.4 17:24:06 10° SSW 17:28:50 43° SE 17:31:43 22° ENE
Cosmos-2242 3.0 17:25:47 10° S 17:30:08 88° E 17:34:29 10° N
COSMO-SKYMED 1 3.0 17:29:30 14° NNE 17:32:51 39° E 17:36:55 10° SSE
Lacrosse 4 Rocket 1.4 17:29:29 10° NNW 17:33:49 89° NE 17:38:03 10° SSE
APEX 2.6 17:35:40 10° SSW 17:38:40 70° WNW 17:39:57 28° NNE
Meteor 2-2 Rocket 4.2 17:34:04 10° S 17:39:46 72° E 17:45:38 10° NNE
Cosmos 2221 3.3 17:37:07 10° SSE 17:40:45 29° E 17:41:02 28° E
Cosmos 2344 3.4 17:33:25 10° SSW 17:41:06 76° SE 17:47:04 17° NE
USA 234 3.2 17:37:35 19° NE 17:42:30 76° SE 17:49:02 10° SW
Meteor 1-25 Rocket 4.1 17:37:32 10° N 17:43:14 83° E 17:48:48 10° SSE
Cosmos 1812 3.0 17:39:37 10° SSW 17:43:16 64° W 17:46:57 10° N
Cosmos 1818 3.5 17:39:36 10° SSW 17:45:01 81° ESE 17:48:46 21° NE
Cosmos 1190 Rocket 4.2 17:40:34 10° NNW 17:45:45 49° ENE 17:50:51 10° SE
Cosmos 2026 Rocket 4.0 17:40:44 10° S 17:46:52 62° E 17:53:08 10° NNE
USA 276 2.7 17:45:55 10° W 17:48:03 31° NNW 17:48:03 31° NNW
Cosmos 1371 Rocket 4.3 17:45:28 10° S 17:50:23 43° ESE 17:52:32 29° NE
Cosmos 2195 Rocket 4.4 17:47:39 10° S 17:53:58 83° E 18:00:17 10° N
Cosmos 1844 Rocket 2.6 17:53:36 10° S 17:59:04 63° ESE 18:02:02 28° NE
USA 307 3.9 17:55:32 10° WNW 17:59:09 40° SW 18:02:21 12° SSE
Cosmos 2263 Rocket 3.7 17:54:27 10° WSW 17:59:22 31° NW 18:04:19 10° N
Meteor 1-26 Rocket 4.3 17:54:49 10° S 18:00:09 53° E 18:04:17 18° NNE
Cosmos 1092 Rocket 3.9 17:58:15 10° S 18:04:22 86° E 18:10:33 10° N
YAOGAN 1 4.2 18:07:02 19° N 18:07:02 19° N 18:08:28 10° N
Cosmos 1766 Rocket 3.6 18:00:31 10° N 18:04:47 51° ENE 18:09:00 10° SSE
Cosmos 1933 3.2 18:01:47 10° S 18:05:46 88° W 18:07:55 26° N
Cosmos 1420 Rocket 4.0 18:01:07 10° S 18:06:16 63° ESE 18:08:27 34° NE
ADEOS 3.4 18:04:24 10° SSE 18:09:35 72° ENE 18:14:49 10° N
Meteor 1-5 Rocket 4.1 18:08:15 10° N 18:13:58 75° ENE 18:19:51 10° SSE
Cosmos 1624 Rocket 3.9 18:08:55 10° S 18:14:05 66° ESE 18:15:40 43° NE
BREEZE-M DEB (TANK) 3.7 18:14:21 10° WNW 18:15:04 18° NW 18:15:04 18° NW
SKYMED 2 3.9 18:18:07 20° N 18:21:00 65° WNW 18:25:17 10° SSW
Cosmos 1603 4.4 18:16:47 10° NW 18:22:18 53° WSW 18:27:45 10° S
SL-08 R/B 3.2 18:25:44 40° N 18:27:25 83° WNW 18:32:04 10° SSW
RESURS DK-1 4.0 18:30:08 10° NNW 18:31:56 25° NNW 18:31:56 25° NNW
Cosmos 1782 4.4 18:32:28 10° SW 18:36:00 33° WNW 18:38:16 18° NNW
Cosmos 676 Rocket 3.8 18:34:21 10° NNW 18:39:41 85° ENE 18:40:05 76° SE
CZ-4B DEB 4.2 18:53:04 46° S 18:54:47 81° WSW 19:00:23 10° NNW
ATLAS 2AS CENTAUR R/B 2.5 18:48:22 10° NW 18:55:16 85° WSW 18:56:38 60° SSE
COSMOS 2455 3.3 19:05:43 10° SSW 19:10:14 54° SSW 19:10:14 54° SSW
Lacrosse 5 3.0 19:06:59 10° WSW 19:10:56 40° WNW 19:10:56 40° WNW
USA 234 3.9 19:24:56 45° NNW 19:25:16 45° NNW 19:31:25 10° W
